Location: Chena
(64.8152°N, 147.9227°W)
Time: 10:08:15
(UTC+00:00)

Transit 4A - All Passes

Search period start: 01 March 2021 00:00
Search period end: 11 March 2021 00:00
Orbit: 866 x 978 km, 66.8° (Epoch: 28 February)

Date Brightness Start Highest point End Pass type
(mag) Time Alt. Az. Time Alt. Az. Time Alt. Az.
01 Mar - 00:41:05 10° W 00:47:24 76° N 00:53:32 10° E daylight
01 Mar - 02:27:52 10° WNW 02:34:10 83° NNE 02:40:14 10° ESE daylight
01 Mar - 04:14:24 10° WNW 04:20:27 56° SW 04:26:18 10° SSE visible
01 Mar - 06:01:12 10° WNW 06:05:46 22° WSW 06:10:15 10° SSW visible
01 Mar - 19:35:38 10° SE 19:39:09 16° ESE 19:42:38 10° ENE daylight
01 Mar - 21:18:14 10° SSW 21:24:08 42° SE 21:29:55 10° ENE daylight
01 Mar - 23:03:48 10° WSW 23:10:09 84° SSE 23:16:20 10° ENE daylight
02 Mar - 00:50:31 10° W 00:56:49 74° N 01:02:56 10° E daylight
02 Mar - 02:37:15 10° WNW 02:43:32 90° N 02:49:36 10° ESE daylight
02 Mar - 04:23:46 10° WNW 04:29:39 47° SW 04:35:20 10° SSE visible
02 Mar - 06:10:51 10° WNW 06:14:44 18° WSW 06:18:32 10° SSW visible
02 Mar - 19:43:43 10° SSE 19:48:04 20° ESE 19:52:24 10° ENE daylight
02 Mar - 21:27:14 10° SSW 21:33:18 50° SE 21:39:16 10° ENE daylight
02 Mar - 23:13:10 10° WSW 23:19:30 88° NNW 23:25:41 10° ENE daylight
03 Mar - 00:59:57 10° W 01:06:14 74° N 01:12:20 10° E daylight
03 Mar - 02:46:38 10° WNW 02:52:52 82° SSW 02:58:54 10° ESE daylight
03 Mar - 04:33:09 10° WNW 04:38:48 39° SW 04:44:15 10° SSE visible
03 Mar - 06:20:47 10° WNW 06:23:37 14° WSW 06:26:24 10° SW visible
03 Mar - 19:52:06 10° SSE 19:57:04 25° ESE 20:01:57 10° ENE daylight
03 Mar - 21:36:20 10° SW 21:42:31 60° SE 21:48:35 10° ENE daylight
03 Mar - 23:22:33 10° WSW 23:28:53 82° NNW 23:35:03 10° ENE daylight
04 Mar - 01:09:22 10° WNW 01:15:39 76° N 01:21:44 10° E daylight
04 Mar - 02:56:00 10° WNW 03:02:11 73° SSW 03:08:09 10° SE daylight
04 Mar - 04:42:33 10° WNW 04:47:54 32° WSW 04:53:04 10° S visible
04 Mar - 20:00:42 10° S 20:06:06 31° ESE 20:11:25 10° ENE daylight
04 Mar - 21:45:31 10° SW 21:51:47 69° SE 21:57:55 10° ENE daylight
04 Mar - 23:31:58 10° W 23:38:17 78° NNW 23:44:25 10° ENE daylight
05 Mar - 01:18:47 10° WNW 01:25:03 80° NNE 01:31:08 10° ESE daylight
05 Mar - 03:05:21 10° WNW 03:11:27 63° SW 03:17:20 10° SE daylight
05 Mar - 04:52:01 10° WNW 04:56:55 26° WSW 05:01:42 10° S visible
05 Mar - 18:27:39 10° SE 18:30:22 13° ESE 18:33:03 10° ENE daylight
05 Mar - 20:09:28 10° S 20:15:12 37° SE 20:20:49 10° ENE daylight
05 Mar - 21:54:46 10° SW 22:01:05 79° SSE 22:07:15 10° ENE daylight
05 Mar - 23:41:24 10° W 23:47:41 75° N 23:53:48 10° E daylight
06 Mar - 01:28:11 10° WNW 01:34:26 85° NNE 01:40:30 10° ESE daylight
06 Mar - 03:14:42 10° WNW 03:20:40 53° SW 03:26:27 10° SSE daylight
06 Mar - 05:01:34 10° WNW 05:05:54 21° WSW 05:10:08 10° SSW visible
06 Mar - 18:35:25 10° SE 18:39:16 17° ESE 18:43:04 10° ENE daylight
06 Mar - 20:18:23 10° SSW 20:24:20 45° SE 20:30:10 10° ENE daylight
06 Mar - 22:04:05 10° WSW 22:10:25 87° SSE 22:16:35 10° ENE daylight
06 Mar - 23:50:50 10° W 23:57:07 74° N 00:03:12 10° E daylight
07 Mar - 01:37:34 10° WNW 01:43:48 88° SSW 01:49:50 10° ESE daylight
07 Mar - 03:24:04 10° WNW 03:29:50 44° SW 03:35:27 10° SSE daylight
07 Mar - 05:11:18 10° WNW 05:14:50 16° WSW 05:18:18 10° SW visible
07 Mar - 18:43:38 10° SSE 18:48:13 21° ESE 18:52:44 10° ENE daylight
07 Mar - 20:27:25 10° SSW 20:33:32 54° SE 20:39:31 10° ENE daylight
07 Mar - 22:13:27 10° WSW 22:19:47 86° NNW 22:25:56 10° ENE daylight
08 Mar - 00:00:16 10° W 00:06:32 75° N 00:12:36 10° E daylight
08 Mar - 01:46:55 10° WNW 01:53:08 79° SSW 01:59:07 10° SE daylight
08 Mar - 03:33:26 10° WNW 03:38:58 36° SW 03:44:19 10° S daylight
08 Mar - 05:21:26 10° W 05:23:42 12° WSW 05:25:56 10° WSW visible
08 Mar - 18:52:06 10° S 18:57:13 27° ESE 19:02:15 10° ENE daylight
08 Mar - 20:36:33 10° SW 20:42:46 63° SE 20:48:50 10° ENE daylight
08 Mar - 22:22:51 10° WSW 22:29:10 80° NNW 22:35:18 10° ENE daylight
09 Mar - 00:09:41 10° WNW 00:15:56 77° N 00:22:00 10° E daylight
09 Mar - 01:56:17 10° WNW 02:02:25 69° SW 02:08:21 10° SE daylight
09 Mar - 03:42:52 10° WNW 03:48:02 29° WSW 03:53:05 10° S daylight
09 Mar - 17:20:14 10° ESE 17:21:37 11° E 17:22:59 10° E daylight
09 Mar - 19:00:46 10° S 19:06:17 33° ESE 19:11:41 10° ENE daylight
09 Mar - 20:45:45 10° SW 20:52:02 73° SE 20:58:10 10° ENE daylight
09 Mar - 22:32:16 10° W 22:38:34 76° N 22:44:41 10° ENE daylight
10 Mar - 00:19:05 10° WNW 00:25:20 82° NNE 00:31:23 10° ESE daylight
10 Mar - 02:05:38 10° WNW 02:11:40 59° SW 02:17:30 10° SE daylight
10 Mar - 03:52:22 10° WNW 03:57:03 24° WSW 04:01:39 10° SSW daylight
10 Mar - 17:27:18 10° SE 17:30:28 14° ESE 17:33:36 10° ENE daylight
10 Mar - 19:09:35 10° SSW 19:15:23 40° SE 19:21:04 10° ENE daylight
10 Mar - 20:55:02 10° WSW 21:01:21 82° SSE 21:07:29 10° ENE daylight
10 Mar - 22:41:43 10° W 22:47:59 74° N 22:54:05 10° E daylight
